Theta_e
292 291 291 292 291 291 292 293 296 295 295 293 297 300 302 305 306 308 311 314 315 316 316 317 317 317 317 317 316 314 314 313 312 310 310 306 304 303 303 303 301 300 299 299 296 295 294 294 293 292 292 292 290 289 288 287 288 287 287 286 286 286
292 292 292 292 293 293 293 293 297 296 296 296 297 299 301 303 304 306 307 310 312 313 314 315 316 315 316 315 314 313 313 312 310 308 305 304 302 303 302 300 299 298 296 294 294 292 291 291 290 290 289 289 288 288 288 287 287 287 286 286 286 286
291 291 290 290 288 289 293 295 298 299 299 299 299 300 301 302 304 305 306 308 310 310 312 312 313 313 315 314 314 313 312 311 308 307 305 301 301 301 300 298 297 296 295 294 293 292 291 290 288 288 288 288 287 287 287 287 287 287 287 287 286 286
288 288 289 288 286 291 294 296 298 300 300 301 301 302 302 303 304 305 306 307 309 309 310 311 311 312 312 311 310 310 308 306 304 302 300 300 299 300 299 298 295 294 294 294 293 292 291 290 288 288 288 286 286 286 286 287 287 286 286 287 286 286
288 288 288 288 288 290 293 294 298 300 301 301 302 302 303 303 304 305 306 306 307 307 307 307 307 307 307 307 305 304 302 301 299 299 300 297 295 295 297 295 294 294 293 292 291 290 289 289 288 287 287 287 286 286 286 287 286 286 286 286 285 285
287 288 290 291 290 290 293 296 298 299 300 301 302 301 302 303 304 304 304 305 304 303 302 302 301 303 303 303 301 300 298 298 297 297 297 295 294 293 292 293 292 292 292 291 289 289 288 288 287 287 287 287 287 286 286 286 286 286 285 285 285 285
289 291 291 291 290 288 288 293 298 298 300 299 300 301 301 301 301 301 300 299 299 298 298 298 299 300 299 298 297 296 295 294 294 293 293 292 292 292 292 291 291 291 291 290 289 288 287 287 287 287 286 286 286 286 286 285 285 285 285 285 284 284
288 287 288 289 288 289 290 293 295 297 297 298 297 298 297 297 297 298 298 297 297 297 296 296 297 297 296 295 294 293 293 292 292 292 292 292 292 291 291 290 290 290 289 288 288 287 287 287 286 286 286 285 285 285 285 285 285 284 284 284 284 284
288 289 288 289 288 288 288 289 293 295 296 296 295 296 297 296 297 296 297 296 296 296 295 294 294 295 293 292 292 292 292 292 291 291 292 292 291 291 290 289 288 287 287 287 286 286 286 286 286 285 285 285 285 285 284 284 284 283 283 283 283 283
288 288 288 288 288 288 287 287 291 295 296 296 295 295 295 296 296 295 295 295 295 294 293 292 292 292 293 292 292 292 292 291 291 291 290 290 290 289 288 287 287 286 286 285 285 285 285 285 285 285 285 285 284 284 284 283 283 282 282 282 282 282
289 289 288 288 288 288 288 287 288 289 293 295 295 294 294 294 295 295 294 293 293 292 291 291 291 291 290 290 290 290 290 290 289 289 288 288 288 287 287 286 285 284 284 285 285 285 285 285 285 285 284 284 284 284 283 283 282 282 281 281 281 281
290 289 288 288 288 288 288 288 288 290 293 294 293 293 293 293 293 294 294 293 292 291 291 290 290 290 290 290 290 289 289 288 288 287 287 286 286 285 285 284 284 284 284 284 284 284 285 284 285 284 285 285 283 283 283 282 282 281 281 280 280 280
290 289 289 289 289 289 289 289 289 289 291 294 293 293 293 293 292 292 292 293 291 291 290 290 289 290 289 290 289 288 288 287 287 286 285 285 284 284 284 284 284 284 284 284 284 284 285 285 285 286 287 286 285 283 282 282 281 281 281 280 280 279
290 290 290 290 289 288 288 289 288 288 290 293 293 293 292 293 293 293 292 291 291 290 290 290 290 289 289 288 288 287 287 286 286 285 285 284 283 283 283 283 283 283 284 284 285 285 285 285 286 288 287 286 285 283 282 282 281 281 280 280 280 279
290 291 291 289 289 289 289 289 289 289 290 291 293 293 292 293 293 293 292 291 290 290 290 290 289 289 288 288 287 287 286 285 285 284 284 283 283 283 282 282 282 283 283 284 285 285 286 286 288 287 287 286 285 284 282 281 281 280 280 280 279 279
290 290 290 290 289 289 289 289 290 290 289 290 291 292 292 293 293 293 293 291 290 290 289 289 288 288 288 287 286 286 285 285 285 284 283 282 282 282 281 281 282 282 283 284 285 285 286 286 287 287 287 286 285 284 282 281 280 280 280 279 279 279
289 288 288 288 289 288 287 288 288 288 288 289 290 291 292 293 293 292 292 291 290 289 289 288 288 287 287 286 285 285 285 284 283 282 282 282 282 281 281 281 281 281 282 283 284 285 285 285 287 287 286 286 285 284 282 280 280 280 279 279 279 278
288 289 290 288 287 287 288 288 288 288 288 288 289 290 291 292 292 292 291 290 289 289 288 288 288 287 286 285 284 284 284 283 282 281 281 281 281 280 280 280 281 281 281 282 283 284 284 285 286 286 286 285 285 283 280 280 279 279 279 278 278 278
288 288 287 286 288 288 288 287 287 288 287 287 288 289 290 290 291 291 291 290 289 289 288 288 287 286 285 284 284 283 283 282 280 280 280 280 280 279 279 279 279 280 281 281 282 283 284 285 285 286 285 285 284 281 279 279 279 279 278 278 278 278
285 286 288 287 287 288 287 287 287 287 287 286 286 287 288 289 290 291 290 290 289 288 288 287 287 286 285 284 284 283 282 281 280 280 280 280 279 278 278 278 279 279 280 281 281 282 283 283 284 285 285 284 283 280 278 279 279 278 278 277 278 278
286 286 286 286 287 286 286 286 286 287 287 286 286 286 287 288 289 289 289 289 288 288 287 287 286 286 285 284 284 283 281 280 279 279 279 279 279 278 278 278 278 277 278 279 280 280 282 282 283 285 284 283 282 280 279 279 278 277 277 277 277 277
286 286 286 286 287 285 286 286 287 286 286 286 285 286 286 287 287 287 288 287 287 286 286 286 285 285 284 284 283 282 281 279 278 278 278 278 278 277 277 277 277 276 276 277 278 279 281 282 282 283 284 283 282 281 279 279 277 276 276 277 277 276
285 286 286 285 285 284 285 286 286 286 286 285 285 285 287 287 286 285 285 285 284 284 285 284 284 284 283 283 281 280 278 278 278 277 277 277 276 276 276 275 275 275 275 276 276 277 278 279 281 282 283 283 282 282 280 278 278 278 277 276 276 276
284 285 284 283 283 284 285 286 286 286 285 284 285 286 286 285 284 284 284 283 283 282 282 281 281 282 281 279 279 278 277 276 277 277 277 277 276 275 274 274 274 274 274 274 274 275 276 278 280 282 283 283 283 282 281 278 278 278 277 276 275 275
284 284 284 282 282 283 284 285 285 284 284 285 286 284 284 283 283 283 283 282 281 281 280 280 279 280 279 278 278 278 277 276 276 276 276 276 275 275 274 273 273 273 273 273 273 274 275 278 279 282 282 283 283 283 282 281 279 280 277 276 275 275
281 282 281 280 281 281 283 285 285 284 284 285 282 282 281 281 281 281 280 280 280 279 279 278 278 279 278 278 278 277 276 276 276 276 276 276 275 275 274 273 273 273 272 272 273 274 276 277 278 281 282 282 283 283 282 282 281 280 277 277 276 276
282 280 280 280 279 281 282 282 284 282 283 281 279 280 280 279 279 279 279 278 278 278 277 277 277 277 277 277 277 277 276 275 275 275 275 275 275 275 274 273 273 273 273 273 272 273 274 276 277 278 280 282 282 283 283 282 282 281 280 276 276 276
277 279 280 280 278 279 279 279 280 283 281 278 279 279 279 278 278 278 277 276 276 276 275 276 275 275 276 276 277 277 277 276 276 276 275 275 275 275 274 273 273 273 273 273 273 273 274 274 275 276 278 280 281 281 282 282 281 280 279 277 276 277
278 278 277 279 278 276 276 277 277 278 276 277 278 278 278 278 278 277 276 276 275 274 275 276 275 275 274 274 275 275 276 276 276 276 275 275 275 275 274 274 273 274 274 274 274 273 273 273 274 274 276 278 279 279 280 280 279 280 278 276 277 277
277 276 275 277 275 274 275 276 276 274 273 275 276 276 277 277 277 277 275 275 274 274 274 275 274 274 274 274 274 275 274 275 275 276 275 275 275 275 274 274 274 274 274 275 274 273 272 272 273 273 274 275 276 277 277 277 277 276 275 274 273 271
274 274 273 274 274 273 274 274 273 271 273 275 275 276 277 277 275 275 273 273 273 273 273 274 274 274 274 274 273 274 275 275 275 276 276 275 276 277 277 276 276 276 277 276 274 272 271 271 272 273 277 276 278 276 275 275 275 274 273 274 273 268
273 273 274 274 272 272 272 272 271 271 272 273 273 275 276 275 274 273 272 272 273 272 273 273 273 273 273 273 273 273 272 274 277 276 275 275 277 279 280 280 277 277 278 277 276 275 273 272 273 277 278 278 279 279 278 277 277 276 274 275 274 269
270 271 272 272 270 270 270 270 269 270 271 272 273 274 274 274 274 273 272 272 272 273 273 273 273 272 272 272 273 272 273 272 272 279 279 278 277 278 279 280 280 280 280 278 276 276 278 277 277 279 279 279 280 280 279 279 278 278 277 278 270 266
273 274 275 272 270 270 269 269 268 268 269 270 271 272 273 274 275 274 273 273 272 273 273 272 272 272 272 271 272 272 272 272 272 272 277 278 278 278 279 280 280 280 281 280 278 276 276 278 279 280 280 280 280 280 280 279 279 278 279 277 273 265
273 272 271 270 269 269 268 269 268 267 267 268 269 271 272 273 274 274 272 272 272 272 272 272 272 271 272 271 271 271 271 272 272 273 272 275 278 279 279 280 280 280 281 280 279 279 278 279 280 281 281 281 281 281 280 280 280 279 279 277 269 265
270 270 269 268 268 268 268 268 267 266 267 267 268 269 270 271 272 272 273 272 272 272 271 272 272 272 272 272 272 272 272 272 273 273 273 272 273 275 277 279 280 280 280 280 280 280 280 281 281 282 281 281 281 281 280 280 278 279 279 274 267 265
269 268 268 268 267 267 267 267 267 265 265 266 267 268 269 269 270 270 271 270 271 272 272 272 272 272 271 271 271 271 271 272 272 273 273 273 273 273 273 274 276 279 280 278 279 280 281 281 282 282 281 281 281 280 280 279 275 273 273 269 264 264
268 267 266 267 266 266 266 268 266 265 264 264 265 267 268 268 269 269 270 269 270 271 271 271 271 271 271 271 271 271 272 271 271 272 272 273 273 273 274 273 275 275 278 279 279 280 281 281 282 281 281 280 280 280 280 272 270 269 268 266 265 264
Wind_Speed
6 5 5 3 3 3 3 2 2 2 3 3 4 7 7 6 6 6 6 7 7 8 9 10 9 8 8 8 9 9 9 9 8 9 9 8 8 8 9 9 10 9 7 8 7 8 10 8 8 9 9 10 9 8 8 6 5 6 6 5 5 5
5 4 3 3 2 2 1 2 1 2 2 3 4 4 4 5 7 7 7 7 6 7 6 7 8 8 9 9 9 9 9 10 10 9 8 10 9 9 10 9 10 10 10 7 8 9 8 9 8 9 9 8 7 6 6 5 7 8 7 5 4 4
4 4 3 3 2 1 1 1 2 2 2 3 3 4 5 6 7 7 7 7 7 7 8 8 7 8 8 9 10 11 10 10 10 10 10 9 9 10 10 10 9 9 11 10 9 11 10 10 9 8 8 7 7 5 6 6 8 9 6 7 7 5
4 3 3 2 2 2 2 2 3 3 4 4 4 4 5 5 6 5 5 5 5 7 7 7 7 8 7 8 8 8 8 8 8 9 9 10 10 11 11 11 10 8 10 11 9 10 9 9 8 8 8 8 8 8 6 7 9 9 8 7 7 6
5 4 3 4 4 3 2 2 3 4 4 4 4 4 5 5 5 4 4 4 5 5 4 4 5 5 7 8 7 7 7 7 6 7 10 9 8 5 9 10 11 11 11 10 10 10 9 9 9 8 9 8 9 9 7 7 9 9 9 8 7 7
4 3 4 5 5 4 6 5 3 4 3 4 4 5 5 4 5 4 5 4 4 4 3 4 3 5 5 6 5 7 6 7 7 6 7 8 8 9 7 7 9 10 11 11 10 10 10 9 9 8 8 9 9 10 9 8 7 8 8 8 8 7
4 6 6 6 5 4 4 5 5 4 4 3 4 4 4 4 4 4 3 4 4 4 4 4 4 5 5 5 5 6 6 7 7 6 9 9 7 8 10 8 8 10 10 10 11 10 10 10 11 10 9 7 7 8 9 8 7 7 7 7 7 6
4 5 6 6 6 6 5 5 4 4 3 4 3 3 3 2 3 3 4 4 4 4 4 4 4 5 5 6 6 7 7 7 7 9 7 8 11 8 8 10 8 10 10 10 10 9 9 10 10 10 10 8 8 8 7 7 7 7 7 7 6 6
8 8 7 7 5 5 5 4 4 4 3 3 2 3 3 4 4 3 4 4 4 5 5 5 4 6 6 6 7 7 7 8 8 7 10 10 10 11 11 9 9 7 10 10 9 10 11 10 9 9 8 8 7 8 9 8 7 7 6 6 6 6
6 7 8 7 7 6 5 5 5 4 4 5 4 3 3 4 4 3 4 4 5 5 5 5 5 6 7 7 7 7 7 8 8 8 7 8 9 9 10 12 11 9 9 9 9 8 9 9 8 8 7 7 7 8 8 8 8 8 8 7 6 6
7 7 7 8 6 7 6 5 5 4 4 4 4 4 4 3 4 4 3 3 4 5 4 4 4 4 4 6 6 6 7 7 7 7 8 8 8 7 9 9 11 12 10 8 8 8 8 9 8 7 8 8 7 7 9 8 8 9 9 8 7 6
7 8 7 7 7 8 7 7 7 8 8 7 5 5 5 5 4 4 6 5 4 4 5 5 5 7 6 7 7 7 7 8 9 9 9 9 8 9 9 10 9 11 12 11 8 8 7 7 6 8 10 9 9 8 7 7 7 8 8 9 8 6
8 7 7 8 9 9 8 8 7 7 8 7 7 7 6 6 5 4 5 7 5 5 6 6 6 7 8 8 7 8 8 9 8 9 9 9 9 10 10 10 11 10 9 10 10 8 6 6 6 13 13 14 13 9 8 8 7 7 7 7 7 7
9 8 10 9 6 6 7 7 7 7 9 7 7 7 6 7 7 7 6 4 6 7 7 7 7 6 7 7 8 8 8 8 8 9 10 10 10 9 9 10 10 10 9 8 8 7 7 7 11 15 14 14 14 10 7 7 7 7 7 7 7 6
9 10 9 6 7 8 9 9 8 10 9 9 8 7 7 7 7 7 7 7 7 7 7 7 8 7 7 7 8 7 7 8 8 9 9 9 9 9 10 10 10 8 7 9 9 8 7 8 12 14 15 14 14 14 10 6 7 8 7 7 6 6
7 7 7 6 6 8 8 9 10 8 6 7 6 9 8 9 8 8 9 8 8 8 7 7 7 8 8 7 8 8 7 7 8 8 7 8 8 9 8 7 10 9 9 9 9 8 8 9 12 14 15 14 15 14 10 6 8 7 7 7 6 5
4 3 3 6 8 6 5 6 5 4 6 7 8 8 9 8 8 7 7 8 8 7 7 7 7 8 7 7 7 7 7 7 7 8 7 8 9 9 10 10 10 8 9 9 8 8 8 7 14 15 15 15 15 15 10 7 7 7 6 6 6 5
4 4 5 4 4 5 6 6 5 6 5 5 7 7 7 7 8 9 8 8 8 8 8 8 7 7 6 7 6 7 8 7 8 9 7 7 6 5 6 5 6 9 9 8 9 10 8 9 15 15 15 16 15 15 7 7 7 7 7 6 5 5
3 4 3 4 6 6 7 5 7 7 6 7 7 8 8 8 10 10 9 8 8 9 9 9 9 9 8 7 8 8 8 8 8 7 6 8 7 8 8 8 7 7 9 10 9 10 9 10 13 15 16 16 16 11 5 6 6 6 7 6 6 5
3 3 4 5 5 4 4 6 7 6 6 6 6 7 8 9 12 8 7 7 7 8 8 9 9 9 9 9 10 9 7 6 5 7 7 10 10 9 8 8 8 6 7 10 10 10 11 9 13 16 15 16 15 10 7 6 7 7 6 6 5 4
4 3 2 2 4 3 5 6 7 7 7 6 7 7 9 11 6 5 8 8 7 7 8 9 8 9 10 11 10 10 11 10 9 7 6 6 7 8 7 7 8 7 5 5 8 10 10 10 12 16 15 16 15 10 6 7 7 8 6 6 6 4
2 2 3 5 5 4 7 7 7 7 7 6 6 8 9 7 7 7 5 5 7 7 8 7 8 9 10 11 9 9 9 8 8 9 8 7 6 8 7 7 7 10 7 6 7 8 8 10 9 12 16 15 15 14 7 5 8 7 8 6 6 6
4 5 5 4 5 6 7 7 8 7 7 7 7 11 10 7 6 6 7 7 8 8 8 6 8 9 7 7 8 7 6 6 8 8 8 8 7 7 8 8 7 8 7 5 5 6 6 7 9 11 16 15 15 16 12 6 6 7 7 7 7 5
2 1 1 2 5 6 7 7 8 7 7 7 10 10 4 5 6 6 7 8 7 7 7 8 7 7 8 8 9 9 7 5 7 8 8 7 8 10 9 8 7 7 6 4 4 5 5 5 9 10 15 16 16 15 14 6 6 7 8 8 6 5
2 1 1 1 3 5 5 6 6 6 5 9 8 3 5 5 5 6 6 6 7 7 8 8 9 9 8 9 10 12 11 9 10 9 9 10 10 11 11 10 9 9 7 6 4 3 4 7 7 12 12 16 16 16 14 12 8 13 7 7 8 8
2 1 1 1 3 4 5 7 6 6 7 9 3 5 5 6 5 5 6 6 6 6 6 7 7 7 7 9 10 10 11 11 10 10 10 10 11 11 10 7 8 8 8 9 7 5 7 7 7 9 13 13 18 16 15 15 15 15 7 6 6 6
2 3 2 1 3 3 4 4 6 5 7 3 5 5 7 6 6 6 6 6 6 6 5 5 6 7 7 8 10 11 10 10 11 11 8 10 10 10 11 10 9 11 8 7 8 7 7 7 7 7 11 16 16 17 17 17 17 15 13 7 6 6
3 3 2 0 0 1 1 3 3 5 3 2 5 6 7 7 7 6 6 5 6 6 6 7 5 5 5 7 7 8 9 11 11 11 10 10 10 10 10 10 9 8 8 7 6 8 7 8 7 8 8 11 12 12 16 16 16 15 14 9 8 10
3 2 1 0 0 0 1 2 3 3 2 4 4 5 7 7 7 6 5 6 5 4 6 7 6 5 4 4 4 4 5 6 7 7 9 9 10 10 8 9 10 10 9 8 7 7 7 7 9 8 9 8 8 8 10 11 10 14 14 10 8 9
3 1 1 1 2 1 1 2 3 2 2 3 3 4 7 7 7 7 6 6 5 5 5 6 7 7 6 6 6 7 6 6 7 9 11 13 13 12 11 11 12 13 13 11 8 9 7 8 9 10 10 11 11 10 8 8 8 9 9 9 8 7
3 2 2 1 1 0 1 1 1 1 3 4 4 5 6 7 5 5 5 5 5 5 5 6 7 7 7 7 6 6 7 9 9 9 7 5 4 6 10 13 13 12 10 10 12 12 8 8 11 13 14 13 17 13 12 10 10 9 8 9 13 9
2 2 0 1 1 1 0 1 1 1 1 2 4 4 5 5 6 5 5 5 5 5 5 5 5 6 6 7 7 6 4 4 6 6 5 6 5 5 4 4 7 6 7 9 10 14 18 18 18 16 21 21 22 21 18 13 16 14 10 15 17 10
2 2 1 0 1 1 1 1 1 1 1 1 1 3 4 5 5 5 5 5 5 6 6 5 5 5 5 5 5 5 6 5 3 8 9 6 5 4 4 4 3 6 9 7 8 10 6 1 8 20 21 21 23 21 20 18 19 20 19 21 14 8
2 1 0 0 0 0 0 0 1 1 1 1 2 2 4 5 5 5 5 5 4 5 6 4 4 4 5 5 5 6 6 6 6 5 5 7 6 6 8 8 8 8 11 12 9 8 4 8 17 21 22 23 22 21 20 20 21 21 22 21 16 10
2 1 1 0 0 0 0 0 2 1 2 2 2 3 4 5 5 5 4 5 5 5 6 5 5 5 6 6 7 7 7 8 8 9 8 4 7 9 10 11 11 12 12 14 13 15 11 12 17 22 22 23 23 22 21 20 21 20 21 21 10 8
3 2 2 1 1 1 0 1 3 2 2 1 2 2 4 4 5 4 5 5 6 6 5 6 6 7 7 6 6 6 7 7 7 8 7 6 4 4 5 8 12 13 14 15 16 17 16 15 19 21 22 23 23 22 21 20 15 19 21 16 9 10
2 1 1 2 1 1 1 2 3 2 1 1 1 2 3 3 4 3 4 7 6 6 6 6 6 7 6 6 7 7 8 8 8 7 7 8 10 10 10 9 8 11 14 11 12 15 15 16 19 21 21 22 21 22 21 19 11 12 11 8 5 7
2 2 3 3 3 2 3 4 3 1 1 1 2 2 3 3 2 2 2 2 4 4 4 5 5 5 6 7 7 7 7 7 7 8 8 7 7 8 8 6 4 3 8 12 12 15 16 18 20 21 22 21 23 22 24 13 11 9 9 9 8 10
Wind_Direction
235 229 245 251 252 257 268 296 251 235 236 238 227 219 218 219 220 222 224 218 212 208 206 204 202 200 195 190 182 175 180 179 174 173 169 144 144 143 145 147 143 142 139 132 128 117 105 123 122 126 128 129 124 125 127 134 133 116 110 119 125 130
266 271 282 296 301 294 289 284 249 249 258 244 237 244 232 226 221 217 220 218 215 210 205 207 202 194 189 185 179 181 185 181 174 165 155 163 154 155 152 146 146 144 137 135 135 116 122 128 129 133 133 128 127 132 132 137 127 114 116 122 116 128
285 297 315 301 302 261 250 232 226 215 193 229 234 233 235 233 230 218 221 210 213 205 202 198 193 193 191 186 185 184 186 178 172 169 166 149 159 151 151 146 147 148 139 139 142 138 137 135 137 140 135 123 128 129 129 129 126 117 118 118 115 112
275 284 282 270 293 282 228 223 218 199 194 204 194 220 242 243 241 234 239 232 224 212 202 196 192 187 183 183 184 184 176 169 167 157 145 164 158 159 153 148 143 145 139 139 142 140 136 133 139 145 134 129 128 125 135 132 128 120 122 125 116 114
275 273 270 269 254 255 249 247 218 208 200 200 197 206 232 230 236 216 221 220 218 216 212 193 190 180 181 178 176 169 160 153 146 153 152 149 149 140 144 146 146 148 140 135 137 136 139 142 143 145 136 137 138 138 139 140 135 134 134 128 125 121
278 285 254 251 243 228 226 228 229 224 221 214 204 202 210 207 202 192 190 194 192 176 165 177 169 168 170 170 159 153 144 143 146 149 140 138 142 139 127 134 138 138 136 135 137 143 144 146 144 140 139 141 141 137 137 138 128 122 121 123 125 124
253 238 235 235 240 241 225 230 222 224 226 224 212 214 198 187 171 170 169 162 154 151 156 159 162 160 155 147 138 138 138 139 138 136 136 133 135 137 136 131 139 134 138 144 148 148 148 146 143 131 130 128 133 132 132 127 118 113 114 114 115 119
262 264 249 244 240 234 227 223 225 220 231 228 218 188 163 167 149 152 146 145 148 151 151 153 148 150 146 145 142 145 143 138 142 144 140 144 141 140 137 141 147 146 144 143 144 144 142 140 139 135 131 133 133 127 116 112 112 114 112 111 110 117
251 244 245 239 245 240 233 222 227 223 220 229 216 200 192 167 153 150 151 155 157 152 154 150 154 150 145 149 147 141 142 144 143 148 152 152 148 146 142 141 133 136 138 140 141 144 141 136 133 131 131 133 133 127 122 119 118 115 108 105 111 112
258 248 244 243 239 233 230 218 227 223 207 218 208 192 180 171 152 155 154 156 152 155 157 159 154 157 154 147 147 149 146 144 147 144 136 132 136 138 142 145 144 141 140 141 142 140 139 134 129 129 132 132 133 128 121 126 126 119 112 110 108 112
246 241 236 235 231 230 223 217 222 240 234 230 205 182 188 174 162 154 149 150 158 159 158 149 137 117 121 129 130 133 134 131 124 122 126 129 131 135 141 139 139 138 133 131 137 137 137 137 140 144 143 136 127 126 128 132 128 126 124 119 115 115
255 248 237 231 223 223 215 208 208 205 206 207 198 187 183 153 175 166 156 165 170 161 150 143 142 141 139 140 144 143 140 136 136 135 135 138 140 139 139 138 141 140 142 140 138 136 135 132 132 138 135 136 137 134 130 126 128 129 128 127 125 118
251 257 250 242 225 221 215 214 207 202 209 203 190 191 176 165 167 175 177 174 166 164 155 149 157 150 154 154 146 145 144 143 141 140 139 140 144 145 146 143 141 142 144 144 141 134 127 129 132 140 140 137 136 132 134 134 132 129 128 131 131 131
249 246 245 244 233 219 213 209 203 200 211 194 192 185 166 174 175 175 182 175 165 165 171 162 155 160 154 149 152 153 150 147 147 146 148 147 149 150 146 147 146 142 140 133 127 121 128 127 142 141 139 138 137 137 128 130 131 133 131 132 131 134
230 232 242 240 225 216 214 201 194 208 199 189 189 163 172 182 180 178 180 174 174 178 177 165 163 163 162 163 156 154 153 155 150 148 151 156 151 143 150 147 140 136 131 134 131 128 131 130 142 139 140 139 138 135 130 127 130 130 132 133 134 138
232 229 229 232 228 218 209 195 205 207 187 179 167 175 181 180 188 186 184 177 180 176 171 168 166 166 167 161 158 157 159 157 157 153 149 143 147 150 141 138 138 137 139 141 136 129 129 130 142 141 140 139 137 137 133 128 129 125 126 130 133 135
259 243 230 225 217 212 189 209 205 169 167 173 179 187 181 188 186 195 188 182 178 170 170 169 170 165 161 161 159 158 159 158 149 151 153 156 158 155 153 150 146 147 142 140 136 129 130 134 143 141 142 142 139 137 133 126 122 119 119 120 125 134
245 238 243 220 183 192 188 197 172 172 182 170 182 181 188 188 196 199 188 184 176 174 171 166 167 164 159 160 160 161 162 162 161 157 152 146 139 130 131 133 138 143 140 138 138 132 133 142 146 146 146 144 141 139 131 131 127 124 126 126 135 143
207 223 197 183 185 184 197 170 166 171 161 173 185 180 188 193 205 205 192 184 179 175 170 171 168 166 165 164 165 169 168 161 158 154 149 145 148 148 152 151 148 148 145 145 144 139 138 144 151 151 149 146 144 139 134 132 126 129 135 140 145 150
239 240 192 197 199 193 155 160 159 161 169 182 177 183 199 205 214 196 180 189 180 176 172 173 171 168 168 168 175 172 165 155 146 158 164 160 157 156 155 146 139 144 150 149 149 151 145 149 154 155 153 151 151 149 145 146 138 136 140 141 150 153
219 228 188 173 203 182 150 148 151 160 180 177 181 192 206 216 207 179 192 191 173 171 175 176 176 173 172 176 177 171 167 168 166 154 152 153 149 148 144 146 142 138 137 143 142 147 147 148 155 158 157 156 157 155 152 150 144 142 149 151 151 151
135 132 165 191 210 152 151 149 156 170 174 183 178 202 217 212 199 195 178 161 167 175 176 179 179 179 177 178 172 170 167 152 149 160 154 151 147 144 145 142 146 145 147 146 147 152 154 152 156 162 161 162 162 163 157 151 146 152 155 158 157 157
183 193 196 199 159 150 152 154 155 178 183 178 187 214 214 196 173 166 171 169 170 176 179 178 181 176 176 169 163 152 144 152 153 148 149 146 142 139 141 143 143 140 141 145 149 147 160 161 155 164 165 166 167 167 165 162 159 153 152 154 158 159
156 132 126 150 149 152 156 158 169 180 182 183 213 220 179 162 165 163 162 169 174 176 175 175 172 167 162 150 144 147 147 142 144 150 149 146 147 147 144 146 146 146 139 128 145 155 162 168 167 163 170 171 171 172 171 161 165 159 150 146 150 156
155 169 173 132 139 154 161 161 171 183 184 209 224 164 150 154 155 158 165 168 173 178 177 176 171 167 163 162 162 157 158 157 156 158 154 152 152 152 153 156 154 148 147 142 155 165 170 173 179 175 172 175 174 175 174 167 157 165 166 155 161 171
131 129 70 112 154 158 168 167 177 186 197 223 165 148 139 146 152 152 160 172 175 174 177 176 174 168 169 165 161 161 158 164 163 161 166 165 161 160 160 161 159 155 159 163 162 173 179 179 179 185 181 178 177 176 173 170 170 167 169 168 156 155
150 124 104 99 159 176 176 186 176 187 209 222 155 152 153 149 150 155 166 173 172 175 171 166 175 172 172 172 166 166 167 165 164 165 174 167 171 170 168 171 170 172 166 161 172 170 175 179 181 184 186 183 180 177 175 175 173 171 170 159 158 155
92 116 130 48 10 233 192 204 184 194 224 180 167 159 150 149 150 162 169 168 169 173 162 166 173 173 176 175 182 182 176 173 176 175 172 177 179 179 174 169 173 172 172 177 168 175 167 173 177 182 186 184 182 180 180 177 174 174 171 158 157 166
97 91 60 287 318 341 290 215 237 221 188 177 175 156 147 148 156 158 161 169 166 158 164 170 171 171 172 182 181 179 173 174 180 175 177 184 180 181 178 173 177 177 182 185 178 169 160 170 180 180 184 183 180 178 177 175 173 172 164 161 162 159
122 133 156 245 287 326 255 222 222 212 179 174 167 159 148 150 160 164 171 169 160 168 173 177 170 170 178 185 182 180 183 190 189 188 188 187 184 180 186 185 187 188 187 187 167 159 168 181 183 187 185 184 179 175 173 171 170 174 172 163 154 143
144 166 170 224 261 283 243 245 253 231 188 173 170 163 158 158 153 147 148 153 153 171 176 176 179 184 182 184 193 207 198 188 194 201 213 229 231 216 198 190 195 197 193 181 168 165 169 180 195 204 194 184 177 171 168 174 179 174 178 169 149 125
143 146 171 297 348 29 354 312 310 303 265 185 169 168 157 151 140 141 157 160 171 175 177 187 188 187 184 186 191 194 226 233 203 213 205 216 235 249 306 244 227 219 193 188 193 183 176 188 204 181 178 182 184 185 179 174 177 176 164 158 151 140
105 115 98 305 6 13 0 316 317 315 314 251 197 175 163 151 151 157 159 166 188 186 186 185 190 193 191 189 186 193 198 217 224 214 218 212 216 225 244 243 197 181 197 199 186 201 235 31 148 167 176 178 183 182 180 178 179 174 169 160 143 139
69 84 309 246 163 218 344 288 312 312 297 284 221 187 164 171 161 176 186 188 186 179 187 191 188 177 184 193 188 190 193 197 211 245 219 199 204 219 219 220 211 208 198 196 194 181 183 176 173 174 177 180 180 181 181 183 179 177 171 164 151 128
189 198 221 200 112 16 42 338 284 295 289 271 229 185 171 183 177 175 174 175 176 178 181 179 185 191 192 194 191 198 194 198 205 209 221 216 207 213 217 218 214 209 201 192 188 192 195 184 178 178 179 179 178 177 180 183 181 178 171 157 158 155
162 172 161 158 158 183 97 307 285 278 268 274 251 214 204 194 193 184 173 177 180 176 186 190 195 196 202 201 200 201 199 211 210 220 207 202 224 227 232 230 219 207 198 197 194 193 199 192 182 179 178 179 178 177 177 178 179 178 177 174 171 165
131 125 110 88 69 44 19 307 297 304 293 279 243 225 227 214 203 191 182 173 174 183 193 195 196 201 199 197 199 199 203 207 209 206 205 206 208 210 211 212 208 206 198 196 196 195 193 187 182 180 179 179 176 175 174 172 169 176 181 174 177 185
88 52 46 60 49 38 9 310 309 331 254 236 221 218 233 237 223 212 202 193 188 192 201 200 205 202 202 204 208 207 208 205 200 206 216 215 217 220 223 224 200 186 204 193 190 188 185 183 182 181 180 179 178 175 173 166 188 182 184 181 194 196